• In Latvia
  • List of Countries
  • For 7 days
  • Water Temperature
  • Satellite Maps
  • Weather Map
  • Weather Widgets
  • user-avatar
    Login

    Hourly Weather Bezvodnaya

    Today, 18 July, Wednesday

    Time Temperature Precipitation Wind Pressure Humidity
    00:00 +18°C° 0 mm 3 mps 722 mmHg 76%
    01:00 +18°C° 0 mm 3 mps 722 mmHg 75%
    02:00 +18°C° 0 mm 2 mps 722 mmHg 75%
    03:00 +18°C° 0 mm 2 mps 721 mmHg 74%
    04:00 +18°C° 0 mm 2 mps 721 mmHg 74%
    05:00 +18°C° 0 mm 2 mps 721 mmHg 75%
    06:00 +18°C° 0 mm 2 mps 721 mmHg 75%
    07:00 +21°C° 0 mm 2 mps 721 mmHg 67%
    08:00 +24°C° 0 mm 2 mps 721 mmHg 59%
    09:00 +27°C° 0 mm 2 mps 721 mmHg 51%
    10:00 +28°C° 0 mm 2 mps 721 mmHg 47%
    11:00 +29°C° 0 mm 2 mps 721 mmHg 43%
    12:00 +30°C° 0 mm 3 mps 721 mmHg 40%
    13:00 +30°C° 0 mm 3 mps 721 mmHg 40%
    14:00 +30°C° 0 mm 3 mps 721 mmHg 40%
    15:00 +30°C° 0 mm 3 mps 721 mmHg 40%
    16:00 +29°C° 0.1 mm 2 mps 721 mmHg 46%
    17:00 +28°C° 0.1 mm 2 mps 721 mmHg 52%
    18:00 +27°C° 0.1 mm 1 mps 721 mmHg 58%
    19:00 +26°C° 0 mm 1 mps 720 mmHg 64%
    20:00 +24°C° 0 mm 1 mps 720 mmHg 71%
    21:00 +22°C° 0 mm 1 mps 720 mmHg 77%
    22:00 +21°C° 0 mm 1 mps 720 mmHg 78%
    23:00 +21°C° 0 mm 1 mps 720 mmHg 79%

    Tomorrow, 19 July, Thursday

    Time Temperature Precipitation Wind Pressure Humidity
    00:00 +20°C° 0 mm 1 mps 720 mmHg 80%
    01:00 +20°C° 0 mm 1 mps 720 mmHg 77%
    02:00 +20°C° 0 mm 1 mps 720 mmHg 75%
    03:00 +19°C° 0 mm 1 mps 720 mmHg 72%
    04:00 +19°C° 0 mm 1 mps 720 mmHg 70%
    05:00 +20°C° 0 mm 1 mps 720 mmHg 67%
    06:00 +20°C° 0 mm 1 mps 720 mmHg 64%
    07:00 +22°C° 0.1 mm 1 mps 720 mmHg 62%
    08:00 +24°C° 0.1 mm 1 mps 720 mmHg 59%
    09:00 +26°C° 0.1 mm 1 mps 720 mmHg 56%
    10:00 +26°C° 0.4 mm 1 mps 720 mmHg 59%
    11:00 +26°C° 0.4 mm 2 mps 720 mmHg 62%
    12:00 +25°C° 0.4 mm 2 mps 721 mmHg 65%
    13:00 +26°C° 0.3 mm 2 mps 721 mmHg 61%
    14:00 +27°C° 0.3 mm 1 mps 721 mmHg 58%
    15:00 +28°C° 0.3 mm 1 mps 721 mmHg 55%
    16:00 +28°C° 0.1 mm 1 mps 721 mmHg 55%
    17:00 +28°C° 0.1 mm 1 mps 721 mmHg 56%
    18:00 +28°C° 0.1 mm 1 mps 721 mmHg 57%
    19:00 +26°C° 0 mm 1 mps 721 mmHg 64%
    20:00 +23°C° 0 mm 1 mps 721 mmHg 72%
    21:00 +21°C° 0 mm 1 mps 720 mmHg 80%
    22:00 +21°C° 0 mm 1 mps 720 mmHg 80%
    23:00 +20°C° 0 mm 1 mps 721 mmHg 80%

    Day after tomorrow, 20 July, Friday

    Time Temperature Precipitation Wind Pressure Humidity
    00:00 +20°C° 0 mm 1 mps 721 mmHg 80%
    01:00 +20°C° 0 mm 1 mps 721 mmHg 78%
    02:00 +19°C° 0 mm 1 mps 721 mmHg 75%
    03:00 +19°C° 0 mm 1 mps 721 mmHg 73%
    04:00 +19°C° 0 mm 1 mps 721 mmHg 72%
    05:00 +20°C° 0 mm 1 mps 721 mmHg 71%
    06:00 +20°C° 0 mm 1 mps 721 mmHg 70%
    07:00 +22°C° 0 mm 1 mps 721 mmHg 64%
    08:00 +25°C° 0 mm 1 mps 721 mmHg 57%
    09:00 +28°C° 0 mm 1 mps 722 mmHg 51%
    10:00 +29°C° 0 mm 1 mps 722 mmHg 49%
    11:00 +30°C° 0 mm 1 mps 722 mmHg 47%
    12:00 +31°C° 0 mm 1 mps 722 mmHg 45%
    13:00 +31°C° 0.5 mm 2 mps 722 mmHg 45%
    14:00 +31°C° 0.5 mm 2 mps 722 mmHg 46%
    15:00 +31°C° 0.5 mm 2 mps 722 mmHg 46%
    16:00 +30°C° 0.7 mm 2 mps 722 mmHg 52%
    17:00 +29°C° 0.7 mm 1 mps 721 mmHg 57%
    18:00 +28°C° 0.7 mm 1 mps 721 mmHg 63%
    19:00 +26°C° 0.6 mm 1 mps 721 mmHg 67%
    20:00 +25°C° 0.6 mm 1 mps 722 mmHg 72%
    21:00 +23°C° 0.6 mm 1 mps 722 mmHg 76%
    22:00 +22°C° 0.6 mm 1 mps 722 mmHg 80%
    23:00 +20°C° 0.6 mm 2 mps 722 mmHg 83%

    21 July, Saturday

    Time Temperature Precipitation Wind Pressure Humidity
    00:00 +20°C° 0.6 mm 2 mps 722 mmHg 86%
    01:00 +19°C° 0.5 mm 2 mps 722 mmHg 88%
    02:00 +19°C° 0.5 mm 2 mps 722 mmHg 89%
    03:00 +19°C° 0.5 mm 1 mps 722 mmHg 91%
    04:00 +20°C° 0.2 mm 1 mps 722 mmHg 90%
    05:00 +20°C° 0.2 mm 1 mps 722 mmHg 90%
    06:00 +20°C° 0.2 mm 1 mps 722 mmHg 89%
    07:00 +23°C° 0 mm 1 mps 722 mmHg 80%
    08:00 +25°C° 0 mm 1 mps 723 mmHg 70%
    09:00 +28°C° 0 mm 1 mps 723 mmHg 61%
    10:00 +29°C° 0.1 mm 2 mps 723 mmHg 57%
    11:00 +30°C° 0.1 mm 2 mps 723 mmHg 54%
    12:00 +31°C° 0.1 mm 2 mps 723 mmHg 51%
    13:00 +30°C° 0.3 mm 2 mps 723 mmHg 53%
    14:00 +30°C° 0.3 mm 2 mps 723 mmHg 56%
    15:00 +30°C° 0.3 mm 2 mps 723 mmHg 58%
    16:00 +29°C° 0.3 mm 2 mps 723 mmHg 62%
    17:00 +28°C° 0.3 mm 1 mps 723 mmHg 65%
    18:00 +28°C° 0.3 mm 1 mps 723 mmHg 69%
    19:00 +26°C° 0.2 mm 1 mps 723 mmHg 75%
    20:00 +24°C° 0.2 mm 1 mps 723 mmHg 80%
    21:00 +23°C° 0.2 mm 1 mps 723 mmHg 86%
    22:00 +21°C° 0.1 mm 2 mps 723 mmHg 88%
    23:00 +21°C° 0.1 mm 2 mps 723 mmHg 90%

    22 July, Sunday

    Time Temperature Precipitation Wind Pressure Humidity
    00:00 +20°C° 0.1 mm 2 mps 723 mmHg 92%
    01:00 +21°C° 0 mm 1 mps 723 mmHg 92%
    02:00 +21°C° 0 mm 1 mps 723 mmHg 93%
    03:00 +20°C° 0 mm 1 mps 723 mmHg 93%
    04:00 +20°C° 0 mm 1 mps 723 mmHg 93%
    05:00 +21°C° 0 mm 1 mps 723 mmHg 92%
    06:00 +21°C° 0 mm 1 mps 723 mmHg 92%
    07:00 +23°C° 0 mm 1 mps 723 mmHg 82%
    08:00 +26°C° 0 mm 1 mps 723 mmHg 72%
    09:00 +28°C° 0 mm 1 mps 723 mmHg 63%
    10:00 +29°C° 0.2 mm 1 mps 723 mmHg 60%
    11:00 +30°C° 0.2 mm 1 mps 723 mmHg 57%
    12:00 +31°C° 0.2 mm 2 mps 723 mmHg 55%
    13:00 +30°C° 0.7 mm 2 mps 723 mmHg 58%
    14:00 +30°C° 0.7 mm 2 mps 722 mmHg 60%
    15:00 +30°C° 0.7 mm 1 mps 722 mmHg 63%
    16:00 +29°C° 0.9 mm 1 mps 722 mmHg 66%
    17:00 +28°C° 0.9 mm 1 mps 722 mmHg 68%
    18:00 +28°C° 0.9 mm 1 mps 722 mmHg 70%
    19:00 +26°C° 0.4 mm 1 mps 722 mmHg 75%
    20:00 +24°C° 0.4 mm 1 mps 722 mmHg 80%
    21:00 +23°C° 0.4 mm 1 mps 722 mmHg 85%
    22:00 +22°C° 0.1 mm 1 mps 722 mmHg 87%
    23:00 +22°C° 0.1 mm 1 mps 722 mmHg 88%

    23 July, Monday

    Time Temperature Precipitation Wind Pressure Humidity
    00:00 +20°C° 0.1 mm 2 mps 722 mmHg 89%
    01:00 +21°C° 0.1 mm 1 mps 722 mmHg 90%
    02:00 +21°C° 0.1 mm 1 mps 722 mmHg 91%
    03:00 +20°C° 0.1 mm 1 mps 722 mmHg 92%
    04:00 +20°C° 0.2 mm 1 mps 722 mmHg 91%
    05:00 +21°C° 0.2 mm 1 mps 722 mmHg 91%
    06:00 +21°C° 0.2 mm 1 mps 722 mmHg 91%
    07:00 +23°C° 0.1 mm 1 mps 722 mmHg 83%
    08:00 +24°C° 0.1 mm 0 mps 722 mmHg 74%
    09:00 +26°C° 0.1 mm 0 mps 722 mmHg 66%
    10:00 +29°C° 0.2 mm 1 mps 722 mmHg 62%
    11:00 +30°C° 0.2 mm 1 mps 722 mmHg 58%
    12:00 +31°C° 0.2 mm 1 mps 722 mmHg 54%
    13:00 +31°C° 0.5 mm 1 mps 721 mmHg 55%
    14:00 +31°C° 0.5 mm 1 mps 721 mmHg 55%
    15:00 +31°C° 0.5 mm 1 mps 721 mmHg 56%
    16:00 +31°C° 0.4 mm 1 mps 721 mmHg 58%
    17:00 +30°C° 0.4 mm 1 mps 721 mmHg 60%
    18:00 +30°C° 0.4 mm 1 mps 721 mmHg 63%
    19:00 +28°C° 0.4 mm 1 mps 721 mmHg 68%
    20:00 +26°C° 0.4 mm 1 mps 721 mmHg 73%
    21:00 +24°C° 0.4 mm 1 mps 721 mmHg 78%
    22:00 +24°C° 0.1 mm 1 mps 721 mmHg 80%
    23:00 +23°C° 0.1 mm 1 mps 720 mmHg 81%
    Show more